Location: Haulchin
(50.3172°N, 3.4360°E)
Time: 19:19:10
(UTC+00:00)

ALOS - Pass Details

Date: 23 May 2024
Orbit: 673 x 676 km, 98.0° (Epoch: 16 June)

Event Time Altitude Azimuth Distance (km) Brightness Sun altitude
Rises 02:58:10 0° 12° (NNE) 3,041 6.7 -7.0°
Reaches altitude 10° 03:00:25 10° 10° (N) 2,121 5.7 -6.8°
Maximum altitude 03:05:02 69° 288° (WNW) 727 2.3 -6.2°
Drops below altitude 10° 03:09:35 10° 205° (SSW) 2,103 4.2 -5.7°
Enters shadow 03:10:47 - 204° (SSW) 2,589 4.7 -5.6°
